FW4090 Weather Reports


Display with metric or nautical units.
time (UTC)temp
F
wind
direction
speed
MPH
gust
MPH
rain 1hr
in
rain 24hr
in
rain mn
in
humidity
%
barometer
mb
20260502220541 54 60 0.0 1.0 0.06 0.11 0.11 94 1010.0
20260502214345 54 103 0.0 1.0 0.06 0.09 0.09 93 1010.1
20260502213539 54 111 0.0 1.0 0.05 0.08 0.08 93 1010.3
20260502211345 54 112 0.0 1.0 0.03 0.06 0.06 93 1010.4
20260502210548 54 112 0.0 1.0 0.03 0.05 0.05 92 1010.6
20260502204340 54 112 0.0 1.0 0.02 0.04 0.04 92 1010.6
20260502204225 54 112 0.0 1.0 0.02 0.03 0.03 92 1010.7
20260502201340 54 112 0.0 1.0 0.02 0.02 0.02 91 1010.6
20260502195840 54 79 0.0 1.0 0.02 0.02 0.02 91 1010.7
20260502194339 55 74 0.0 2.0 0.02 0.02 0.02 90 1010.8
20260502192836 55 66 1.0 3.0 0.01 0.01 0.01 89 1010.6
20260502191338 55 56 1.0 3.0 0.01 0.01 0.01 88 1010.7
20260502185836 55 71 1.0 3.0 0.00 0.00 0.00 87 1010.8
20260502184336 55 66 2.0 4.0 0.00 0.00 0.00 86 1010.7
20260502182836 55 70 2.0 4.0 0.00 0.00 0.00 85 1010.7
20260502182034 55 66 2.0 6.0 0.00 0.00 0.00 83 1010.8
20260502181229 56 68 2.0 6.0 0.00 0.00 0.00 81 1010.9
20260502164331 56 54 3.0 10.0 0.00 0.01 0.00 77 1011.2
20260502162835 57 38 3.0 10.0 0.00 0.02 0.00 76 1011.3
20260502161334 57 37 4.0 11.0 0.00 0.02 0.00 74 1011.4
20260502160526 58 40 4.0 11.0 0.00 0.02 0.00 73 1011.6
20260502151324 58 28 5.0 12.0 0.00 0.05 0.00 73 1012.0
20260502122807 61 18 3.0 7.0 0.00 0.06 0.00 68 1013.8
20260502121913 60 294 2.0 7.0 0.00 0.07 0.00 68 1014.1
20260502121311 62 266 2.0 7.0 0.00 0.06 0.00 67 1014.1
20260502115005 59 307 3.0 5.0 0.00 0.07 0.00 72 1014.3
20260502112807 60 262 3.0 7.0 0.00 0.07 0.00 71 1014.5
20260502111308 60 306 2.0 7.0 0.00 0.07 0.00 71 1014.5
20260502105802 59 145 2.0 7.0 0.00 0.07 0.00 72 1014.6
20260502104301 58 113 3.0 6.0 0.00 0.07 0.00 73 1014.3
20260502102759 58 97 2.0 5.0 0.00 0.07 0.00 75 1014.5
20260502102005 57 110 2.0 5.0 0.00 0.07 0.00 76 1014.8
20260502071257 54 179 2.0 5.0 0.00 0.07 0.00 86 1015.6
20260502065757 53 126 2.0 4.0 0.00 0.07 0.00 89 1015.5
20260502064257 51 114 2.0 4.0 0.00 0.07 0.00 91 1015.3
20260502062757 50 112 2.0 5.0 0.00 0.07 0.00 92 1015.4
20260502061951 49 94 1.0 2.0 0.00 0.07 0.00 93 1015.5
20260502055757 48 96 1.0 1.0 0.00 0.07 0.00 94 1015.4
20260502054255 47 86 1.0 2.0 0.00 0.07 0.00 94 1015.4
20260502052755 47 84 1.0 2.0 0.00 0.07 0.00 93 1015.4
20260502051254 47 91 1.0 2.0 0.00 0.07 0.00 93 1015.4
20260502045752 46 85 1.0 1.0 0.00 0.07 0.00 93 1015.3
20260502044253 46 79 2.0 2.0 0.00 0.07 0.00 93 1015.4
20260502042750 47 85 1.0 2.0 0.00 0.07 0.00 92 1015.4
20260502041945 47 108 0.0 1.0 0.00 0.07 0.00 92 1015.4
20260502035745 47 321 0.0 1.0 0.00 0.07 0.00 92 1015.5
20260502034244 48 103 1.0 2.0 0.00 0.07 0.00 91 1015.5
20260502032742 49 90 0.0 1.0 0.00 0.07 0.00 89 1015.6
20260502031239 50 267 0.0 3.0 0.00 0.07 0.00 89 1015.7
20260502025738 50 281 1.0 3.0 0.00 0.07 0.00 89 1015.7
20260502024237 50 245 2.0 5.0 0.00 0.07 0.00 89 1015.8
20260502022734 50 114 0.0 4.0 0.00 0.07 0.00 89 1015.8
20260502021234 50 267 0.0 4.0 0.00 0.07 0.00 89 1015.9
20260502020428 50 218 1.0 3.0 0.00 0.07 0.00 88 1016.0
20260502014230 51 227 2.0 7.0 0.00 0.07 0.00 89 1016.2
20260502012728 50 252 1.0 4.0 0.00 0.07 0.00 89 1016.3
20260502011933 51 233 3.0 7.0 0.00 0.07 0.00 89 1016.5
20260502005728 51 226 2.0 6.0 0.00 0.07 0.00 90 1016.5
20260502004230 50 196 1.0 6.0 0.00 0.07 0.00 90 1016.6
20260502002731 50 185 1.0 5.0 0.00 0.07 0.00 90 1016.7
20260502001230 50 138 2.0 6.0 0.00 0.07 0.00 90 1016.8
20260501235729 50 214 2.0 8.0 0.00 0.07 0.00 90 1016.8
20260501234224 50 174 3.0 7.0 0.00 0.07 0.00 90 1016.9
20260501232723 50 293 2.0 7.0 0.00 0.07 0.00 90 1017.0
20260501231919 50 233 2.0 5.0 0.00 0.07 0.00 90 1017.1
20260501225722 51 170 2.0 5.0 0.00 0.07 0.07 90 1017.1
20260501224915 51 207 1.0 5.0 0.00 0.07 0.07 90 1017.0
20260501222721 51 227 1.0 5.0 0.00 0.07 0.07 90 1017.1
20260501221216 51 317 0.0 4.0 0.00 0.07 0.07 91 1017.1